Flagstaff, AZ

12:03 PM MST on June 26, 2017 (GMT -0700)
Lowell Observatory | | Change Station

Elev 7247 ft 35.20 °N, 111.67 °W | Updated 16 seconds ago

Clear
Clear
80.8 °F
Feels Like 79 °F
N
11.0
Wind Variable Wind from West
Gusts 13.0 mph

Today
High -- | Low -- °F
--% Chance of Precip.
Yesterday
High -- | Low -- °F
Precip. -- in
Pressure 30.01 in
Visibility 10.0 miles
Clouds Clear
Heat Index 79 °F
Dew Point 37 °F
Humidity 21%
Rainfall 0.00 in
Snow Depth Not available.
5:14 AM 7:45 PM
Waxing Crescent, 10% visible
METAR KFLG 261857Z VRB04G14KT 10SM CLR 29/01 A3035 RMK AO2 SLP163 T02890006 $
Pressure 30.01 in
Visibility 10.0 miles
Clouds Clear
Heat Index 79 °F
Dew Point 37 °F
Humidity 21%
Rainfall 0.00 in
Snow Depth Not available.
5:14 AM 7:45 PM
Waxing Crescent, 10% visible
METAR KFLG 261857Z VRB04G14KT 10SM CLR 29/01 A3035 RMK AO2 SLP163 T02890006 $

Get Severe Weather Alerts

Thanks for signing up!

Be on the lookout for a verification email in your inbox.

You'll start receiving the daily forecast at 6 AM.

×

10-Day Weather Forecast

Almanac

Astronomy

Jun. 26, 2017 Rise Set
Actual Time
Civil Twilight
Nautical Twilight
Astronomical Twilight
Moon
Length of Visible Light
Length of Day
Tomorrow will be .
, % of the Moon is Illuminated

Today's Extremes

State Highs State Lows

Community

WunderPhotos

Category 6

Welcome to Category 6. This is the collective home for Weather Underground's featured writeups by Dr. Jeff Masters (right), Bob Henson (left), Chris Burt, and other regular contributors.

Nearby

Air Quality

  Air Quality AQ Index Pollutant
Not available.

Snow Depth

Station Depth Elevation

Earthquake Activity

City Distance Mag. Time & Date
Minimum magnitude displayed is 2.5.

Coastal Water Temperatures

Place Temperature

Stations

Nearby Weather Stations

Station Location Temp. Windchill Dew Point Humidity Wind Precip. Elev Updated Type
                   

Watches & Warnings

There are currently no watches in effect.